sat.trackr.live / text

‹ back to catalog

STARLINK-4318

NORAD 53086 · 2022-077AV

PAYLOAD ACTIVE UNKNOWN

§ Identity

Operator
Country
US
Launch date
2022-07-11
Launch site
AFWTR
Launch vehicle
Mass (kg)
RCS (m²)

Purposes: comms

External: N2YO · Heavens-Above · Gunter

§ Orbital elements

Epoch: 2026-09-19T17:38:58.556544Z

Period
93.91 min
Inclination
97.2851°
Eccentricity
0.0001890
Mean motion
15.33433181 rev/d
Perigee alt
464.3 km
Apogee alt
466.9 km
Semi-major
6,843.7 km
B*
5.2502e-6
RAAN
77.4812°
Arg perigee
96.2479°
Mean anomaly
263.8979°
Rev number
23,017

§ Raw data

STARLINK-43181 53086U 22077AV  26262.73539996  .00000094  00000+0  52502-5 0  99902 53086  97.2851  77.4812 0001890  96.2479 263.8979 15.33433181230179

JSON: /api/v1/satellites/53086 · /tle

For live sub-satellite position, see the globe view (requires WebGL).

§ Visibility from observer

Set your observer location to see the next 7 days of passes ≥ 10°. The values pass through the URL so the page stays shareable.

No JS? Fill the form by hand. The geolocation button needs JavaScript.